Location: Unspecified
(0.0000°N, 0.0000°E)
Time: 01:20:05
(UTC+02:00)

Cosmos 1300 - Visible Passes

Search period start: 21 October 2017 00:00
Search period end: 30 October 2017 23:00
Orbit: 514 x 517 km, 82.5° (Epoch: 20 October)

Date Brightness Start Highest point End Pass type
(mag) Time Alt. Az. Time Alt. Az. Time Alt. Az.
21 Oct 5.3 21:04:35 10° SW 21:07:33 21° W 21:10:30 10° NW visible
22 Oct 4.9 20:49:05 10° SSW 20:52:23 28° W 20:55:41 10° NNW visible
23 Oct 4.4 20:33:41 10° SSW 20:37:14 36° W 20:40:46 10° NNW visible
24 Oct 3.8 20:18:21 10° SSW 20:22:04 49° W 20:25:45 10° N visible
25 Oct 3.2 20:03:06 10° S 20:06:54 67° W 20:10:41 10° N visible
29 Oct 4.1 06:10:07 10° NNE 06:13:45 42° E 06:17:22 10° SSE visible
30 Oct 4.7 05:55:09 10° NNE 05:58:34 32° E 06:02:00 10° SSE visible
